Regional Weather Roundup
Issued by NWS Glasgow, MT

Home | Current Version | Previous Version | Text Only | Print | Product List | Glossary On
Versions: 1 2 3 4 5 6 7 8 9 10 11 12 13 14 15 16 17 18 19 20 21 22 23 24 25 26 27
000
ASUS45 KGGW 271515
RWRGGW
HOURLY REGIONAL WEATHER ROUNDUP FOR NORTHEAST MONTANA
NATIONAL WEATHER SERVICE GLASGOW MONTANA
900 AM MDT WED JUL 27 2016

NOTE: "FAIR" INDICATES FEW OR NO CLOUDS BELOW 12,000 FEET WITH NO
SIGNIFICANT WEATHER AND/OR OBSTRUCTIONS TO VISISBILITY.

NORTHEAST MONTANA


CITY           SKY/WX    TMP DP  RH WIND       PRES   REMARKS
GLASGOW        CLOUDY    64  61  90 NE6       30.13R
PLENTYWOOD       N/A     66  56  70 W3          N/A
WOLF POINT     LGT RAIN  66  63  90 E7        30.13F
JORDAN           N/A     69  61  75 NE7       30.13R
WINNETT          N/A     70  58  65 NE2         N/A
SIDNEY         CLOUDY    66  60  81 N6        30.13R
GLENDIVE       CLOUDY    67  63  87 NE9       30.12S
MALTA            N/A     64  62  93 W1          N/A
SCOBEY           N/A     63  54  72 CALM      30.14R
OPHEIM           N/A     59  57  94 CALM      29.95R

FORT PECK REPORTS


CITY           SKY/WX    TMP DP  RH WIND       PRES   REMARKS
FORT PECK        N/A     64  64 100 NE8         N/A
THE PINES        N/A     66  61  84 NE6         N/A

SOUTHEAST MONTANA


CITY           SKY/WX    TMP DP  RH WIND       PRES   REMARKS
BILLINGS       MOSUNNY   69  57  65 N8        30.16R
MILES CITY     CLOUDY    66  61  84 SE3       30.11R
BAKER          CLOUDY    66  60  81 SE13      30.13F
LIVINGSTON     SUNNY     65  46  50 N5        30.20S

CENTRAL MONTANA


CITY           SKY/WX    TMP DP  RH WIND       PRES   REMARKS
HAVRE          CLOUDY    64  60  87 VRB3      30.16R
LEWISTOWN      PTSUNNY   61  55  81 W6        30.20S
GREAT FALLS    SUNNY     65  54  67 VRB5      30.19R
CUT BANK       MOSUNNY   63  54  72 CALM      30.21R
HELENA         SUNNY     65  52  62 CALM      30.19R
BUTTE          MOSUNNY   58  40  51 CALM      30.26F
BOZEMAN        SUNNY     64  49  57 CALM      30.22R

WESTERN MONTANA


CITY           SKY/WX    TMP DP  RH WIND       PRES   REMARKS
MISSOULA       MOSUNNY   66  52  60 CALM      30.15S
KALISPELL      NOT AVBL

NORTH DAKOTA


CITY           SKY/WX    TMP DP  RH WIND       PRES   REMARKS
WILLISTON      CLOUDY    68  56  65 N6        30.13S
DICKINSON      PTSUNNY   64  60  87 CALM      30.13R
MINOT          CLOUDY    70  59  68 SE5       30.14R
BISMARCK       MOSUNNY   70  62  76 VRB3      30.11S

SOUTHERN SASKATCHEWAN


CITY           SKY/WX    TMP DP  RH WIND       PRES   REMARKS
REGINA         PTSUNNY   66  57  72 SE5       30.18R
MOOSE JAW      PTSUNNY   66  55  68 E3        30.18R
ESTEVAN        MOSUNNY   66  59  77 E6        30.15R
SWIFT CURRENT  MOSUNNY   63  55  77 E12       30.17R





USA.gov is the U.S. government's official web portal to all federal, state and local government web resources and services.